This is the latest recevied weather packets stored in our database for station/object KB1YYC. If no packets are shown the sender has not sent any weather packets the latest 10 day(s).
| Time | Temp. | Humidity | Pressure | Rain* | Wind** | Luminosity | Snow |
|---|---|---|---|---|---|---|---|
| 1777417178 | 8.89° C | 22% | 1021.8 hPa | 0 mm | - | 15 W/m² | - |
| 1777416873 | 9.44° C | 21% | 1021.9 hPa | 0 mm | - | 17 W/m² | - |
| 1777416569 | 9.44° C | 20% | 1021.8 hPa | 0 mm | - | 21 W/m² | - |
| 1777416266 | 10° C | 18% | 1021.8 hPa | 0 mm | - | 26 W/m² | - |
| 1777415964 | 10° C | 17% | 1021.8 hPa | 0 mm | - | 33 W/m² | - |
| 1777415661 | 10° C | 16% | 1021.9 hPa | 0 mm | - | 33 W/m² | - |
| 1777415356 | 10.56° C | 16% | 1021.9 hPa | 0 mm | - | 36 W/m² | - |
| 1777415051 | 10.56° C | 17% | 1022.1 hPa | 0 mm | - | 40 W/m² | - |
| 1777414750 | 11.11° C | 17% | 1021.9 hPa | 0 mm | - | 45 W/m² | - |
| 1777414447 | 11.11° C | 16% | 1022.1 hPa | 0 mm | - | 48 W/m² | - |
| 1777414145 | 11.11° C | 15% | 1021.9 hPa | 0 mm | - | 48 W/m² | - |
| 1777413842 | 11.11° C | 13% | 1022 hPa | 0 mm | - | 46 W/m² | - |
| 1777413537 | 11.11° C | 13% | 1022.2 hPa | 0 mm | - | 42 W/m² | - |
| 1777413233 | 11.67° C | 11% | 1022.2 hPa | 0 mm | - | 40 W/m² | - |
| 1777412929 | 11.67° C | 14% | 1022 hPa | 0 mm | - | 41 W/m² | - |
| 1777412628 | 11.67° C | 12% | 1022 hPa | 0 mm | - | 40 W/m² | - |
| 1777412325 | 11.67° C | 13% | 1022.2 hPa | 0 mm | - | 38 W/m² | - |
| 1777412020 | 11.67° C | 13% | 1022.1 hPa | 0 mm | - | 39 W/m² | - |
| 1777411719 | 12.22° C | 13% | 1022 hPa | 0 mm | - | 38 W/m² | - |
| 1777411414 | 12.22° C | 15% | 1022.2 hPa | 0 mm | - | 37 W/m² | - |
| 1777411109 | 12.22° C | 14% | 1022.1 hPa | 0 mm | - | 38 W/m² | - |
| 1777410809 | 12.22° C | 15% | 1022.1 hPa | 0 mm | - | 35 W/m² | - |
| 1777410507 | 12.78° C | 15% | 1022.1 hPa | 0 mm | - | 38 W/m² | - |
| 1777410202 | 12.78° C | 13% | 1022.1 hPa | 0 mm | - | 37 W/m² | - |
| 1777409897 | 12.78° C | 14% | 1022.2 hPa | 0 mm | - | 37 W/m² | - |
* Rain latest hour (hover to see other rain measurements)
** Current wind speed in m/s (hover to see current wind gust speed)